Weather History for Beckley, WV

Change the Weather History Date:

Tuesday, July 1, 2014

  Actual Average Record
Temperature  
Mean Temperature 76 °F 70 °F  
Max Temperature 85 °F 80 °F 93 °F (1941)
Min Temperature 66 °F 61 °F 41 °F (1988)
Degree Days  
Heating Degree Days 0 0  
Month to date heating degree days 0 0  
Since 1 June heating degree days 12 39  
Since 1 July heating degree days 0 0  
Cooling Degree Days 11 6  
Month to date cooling degree days 11 6  
Year to date cooling degree days 257 158  
Since 1 June cooling degree days 182 117  
Growing Degree Days 25 (Base 50)    
Moisture  
Dew Point 66 °F    
Average Humidity 74    
Maximum Humidity 93    
Minimum Humidity 55    
Precipitation  
Precipitation 0.07 in 0.15 in 1.72 in (1986)
Month to date precipitation 0.07 0.15  
Year to date precipitation 18.05 21.31  
Snow  
Snow 0.00 in - - ()
Month to date snowfall 0.0  
Since 1 September snowfall 76.3  
Snow Depth 0.00 in    
Sea Level Pressure  
Sea Level Pressure 29.95 in    
Wind  
Wind Speed 6 mph (SSW)    
Max Wind Speed 16 mph    
Max Gust Speed 23 mph    
Visibility 10 miles    
Events Rain    
T = Trace of Precipitation, MM = Missing Value Source: NWS Daily Summary

Daily Weather History Graph

Daily Weather History Graph

Search for Another Location

Airport:

Trip Planner

Search our weather history database for the weather conditions in past years. The results will help you decide how hot, cold, wet, or windy it might be!

Date:

Astronomy

Jul. 01, 2014 Rise Set
Actual Time 6:06 AM EDT 8:50 PM EDT
Civil Twilight 5:35 AM EDT 9:21 PM EDT
Nautical Twilight 4:56 AM EDT 10:00 PM EDT
Astronomical Twilight 4:11 AM EDT 10:44 PM EDT
Moon 10:08 AM EDT (7/1) 11:18 PM EDT (7/1)
Length of Visible Light 15h 46m
Length of Day
14h 44m
Waxing Crescent, 16% of the Moon is Illuminated
Jul 1
Waxing Crescent
Jul 5
First Quarter
Jul 12
Full
Jul 18
Last Quarter
Jul 26
New

Hourly Weather History & Observations

Time (EDT) Temp. Heat Index Dew Point Humidity Pressure Visibility Wind Dir Wind Speed Gust Speed Precip Events Conditions
12:51 AM 68.0 °F - 64.9 °F 90% 29.94 in 10.0 mi South 3.5 mph - N/A   Clear
1:51 AM 68.0 °F - 64.0 °F 87% 29.91 in 10.0 mi SE 5.8 mph - N/A   Clear
2:51 AM 66.9 °F - 64.0 °F 90% 29.92 in 10.0 mi SSE 4.6 mph - N/A   Clear
3:51 AM 66.9 °F - 64.0 °F 90% 29.93 in 10.0 mi SSW 5.8 mph - N/A   Clear
4:51 AM 66.9 °F - 63.0 °F 87% 29.93 in 10.0 mi SSW 5.8 mph - N/A   Clear
5:51 AM 66.9 °F - 63.0 °F 87% 29.92 in 10.0 mi SSW 5.8 mph - N/A   Clear
6:51 AM 68.0 °F - 64.0 °F 87% 29.91 in 10.0 mi South 4.6 mph - N/A   Clear
7:17 AM 69.1 °F - 64.0 °F 84% 30.03 in 10.0 mi South 4.6 mph - N/A   Mostly Cloudy
7:25 AM 69.1 °F - 64.9 °F 87% 30.03 in 10.0 mi SSW 4.6 mph - N/A   Scattered Clouds
7:51 AM 70.0 °F - 64.9 °F 84% 29.94 in 10.0 mi SW 3.5 mph - N/A   Partly Cloudy
8:02 AM 70.0 °F - 64.9 °F 84% 30.05 in 10.0 mi WSW 3.5 mph - N/A   Mostly Cloudy
8:46 AM 71.6 °F - 66.2 °F 83% 30.06 in 10.0 mi SW 8.1 mph - N/A   Mostly Cloudy
8:51 AM 71.1 °F - 64.9 °F 81% 29.96 in 10.0 mi SW 6.9 mph - N/A   Overcast
9:31 AM 69.1 °F - 66.0 °F 90% 30.07 in 1.8 mi Calm Calm - 0.04 in Rain Heavy Rain
9:42 AM 70.0 °F - 66.9 °F 90% 30.04 in 3.0 mi South 5.8 mph - 0.07 in Rain Light Rain
9:51 AM 70.0 °F - 66.9 °F 90% 29.93 in 8.0 mi SSW 8.1 mph - 0.07 in   Mostly Cloudy
10:10 AM 72.0 °F - 69.1 °F 91% 30.03 in 10.0 mi SSW 10.4 mph - N/A   Partly Cloudy
10:24 AM 72.0 °F - 68.0 °F 87% 30.02 in 10.0 mi SSW 10.4 mph - N/A   Mostly Cloudy
10:51 AM 73.4 °F - 69.8 °F 88% 30.03 in 10.0 mi SW 5.8 mph - N/A   Overcast
11:32 AM 75.9 °F - 69.1 °F 79% 30.02 in 9.0 mi SSW 10.4 mph - N/A   Mostly Cloudy
11:44 AM 75.9 °F - 68.0 °F 76% 30.02 in 10.0 mi WSW 10.4 mph - N/A   Mostly Cloudy
11:51 AM 75.9 °F - 69.1 °F 79% 29.91 in 10.0 mi SSW 10.4 mph - N/A   Mostly Cloudy
12:03 PM 77.0 °F - 69.1 °F 76% 30.02 in 10.0 mi SW 11.5 mph - N/A   Mostly Cloudy
12:51 PM 81.0 °F 83.8 °F 68.0 °F 65% 29.89 in 10.0 mi SSW 11.5 mph - N/A   Mostly Cloudy
1:51 PM 80.6 °F 82.7 °F 66.2 °F 61% 30.01 in 10.0 mi WSW 10.4 mph - N/A   Mostly Cloudy
2:04 PM 82.0 °F 84.5 °F 66.9 °F 60% 30.01 in 10.0 mi West 15.0 mph - N/A   Mostly Cloudy
2:51 PM 82.9 °F 85.0 °F 66.0 °F 56% 29.89 in 10.0 mi WSW 9.2 mph - N/A   Partly Cloudy
3:51 PM 82.0 °F 84.1 °F 66.0 °F 58% 29.90 in 10.0 mi WNW 5.8 mph - N/A   Mostly Cloudy
4:51 PM 82.9 °F 85.0 °F 66.0 °F 56% 29.89 in 10.0 mi West 6.9 mph - N/A   Mostly Cloudy
5:51 PM 84.0 °F 86.3 °F 66.0 °F 55% 29.88 in 10.0 mi WSW 8.1 mph - N/A   Scattered Clouds
6:51 PM 82.0 °F 84.5 °F 66.9 °F 60% 29.88 in 10.0 mi SSW 5.8 mph - N/A   Clear
7:51 PM 80.1 °F 82.3 °F 66.9 °F 64% 29.86 in 10.0 mi South 5.8 mph - N/A   Clear
8:51 PM 77.0 °F - 68.0 °F 74% 29.87 in 10.0 mi South 3.5 mph - N/A   Clear
9:51 PM 73.9 °F - 66.9 °F 79% 29.89 in 10.0 mi SSE 3.5 mph - N/A   Clear
10:51 PM 73.0 °F - 66.9 °F 81% 29.90 in 10.0 mi South 5.8 mph - N/A   Clear
11:51 PM 73.0 °F - 66.0 °F 79% 29.92 in 10.0 mi SSW 5.8 mph - N/A   Clear